FW7539 Weather Reports


time (UTC)temp
F
wind
direction
speed
knots
gust
knots
rain 1hr
in
rain 24hr
in
rain mn
in
humidity
%
barometer
mb
20260507180500 60 291 1.7 7.0 0.00 0.00 0.00 40 1015.9
20260507180021 60 351 1.7 4.3 0.00 0.00 0.00 43 1015.9
20260507175501 59 356 2.6 8.7 0.00 0.00 0.00 43 1015.9
20260507175022 59 355 3.5 8.7 0.00 0.00 0.00 42 1016.1
20260507174521 58 323 2.6 8.7 0.00 0.00 0.00 42 1016.2
20260507174022 58 274 2.6 8.7 0.00 0.00 0.00 41 1016.2
20260507173501 58 279 2.6 9.6 0.00 0.00 0.00 43 1016.3
20260507173000 58 337 2.6 9.6 0.00 0.00 0.00 42 1016.2
20260507172500 59 341 2.6 7.8 0.00 0.00 0.00 43 1016.4
20260507172000 59 338 2.6 8.7 0.00 0.00 0.00 40 1016.4
20260507171501 59 358 2.6 8.7 0.00 0.00 0.00 41 1016.5
20260507171022 58 346 2.6 8.7 0.00 0.00 0.00 43 1016.5
20260507170501 58 338 2.6 8.7 0.00 0.00 0.00 45 1016.6
20260507170000 58 345 2.6 11.3 0.00 0.00 0.00 42 1016.6
20260507165500 58 302 2.6 11.3 0.00 0.00 0.00 42 1016.7
20260507165001 57 266 2.6 6.1 0.00 0.00 0.00 41 1016.7
20260507164501 57 330 2.6 7.8 0.00 0.00 0.00 42 1016.7
20260507164000 57 360 3.5 7.8 0.00 0.00 0.00 45 1016.7
20260507163521 57 7 3.5 12.2 0.00 0.00 0.00 44 1016.8
20260507163000 57 1 3.5 12.2 0.00 0.00 0.00 46 1016.9
20260507162501 57 354 2.6 7.0 0.00 0.00 0.00 46 1016.9
20260507162000 57 355 2.6 9.6 0.00 0.00 0.00 45 1017.0
20260507161521 56 308 2.6 9.6 0.00 0.00 0.00 45 1017.0
20260507161001 56 270 2.6 7.8 0.00 0.00 0.00 46 1016.9
20260507160501 56 313 2.6 6.1 0.00 0.00 0.00 44 1017.0
20260507160001 56 358 3.5 10.4 0.00 0.00 0.00 46 1016.9
20260507155500 56 356 3.5 10.4 0.00 0.00 0.00 47 1016.9
20260507155001 56 293 2.6 10.4 0.00 0.00 0.00 47 1017.0
20260507154501 56 271 2.6 10.4 0.00 0.00 0.00 44 1016.8
20260507154000 56 271 1.7 5.2 0.00 0.00 0.00 46 1016.9
20260507153500 56 287 2.6 9.6 0.00 0.00 0.00 47 1016.9
20260507153000 55 315 1.7 9.6 0.00 0.00 0.00 48 1016.8
20260507152501 55 287 1.7 6.1 0.00 0.00 0.00 52 1017.0
20260507152000 54 250 2.6 7.0 0.00 0.00 0.00 50 1016.9
20260507151501 54 253 2.6 7.8 0.00 0.00 0.00 47 1016.9
20260507151001 54 260 2.6 7.8 0.00 0.00 0.00 46 1016.8
20260507150522 54 327 2.6 7.0 0.00 0.00 0.00 46 1016.8
20260507150000 54 359 3.5 9.6 0.00 0.00 0.00 48 1016.7
20260507145500 54 342 3.5 9.6 0.00 0.00 0.00 46 1016.8
20260507145000 53 305 2.6 9.6 0.00 0.00 0.00 46 1016.8
20260507144522 53 248 2.6 7.8 0.00 0.00 0.00 50 1016.7
20260507144022 53 256 1.7 7.8 0.00 0.00 0.00 48 1016.7
20260507143500 53 354 1.7 7.0 0.00 0.00 0.00 49 1016.7
20260507143000 53 359 2.6 7.8 0.00 0.00 0.00 49 1016.7
20260507142500 52 332 1.7 7.8 0.00 0.00 0.00 50 1016.9
20260507142001 52 309 1.7 7.0 0.00 0.00 0.00 50 1016.9
20260507141501 52 289 2.6 7.0 0.00 0.00 0.00 53 1017.0
20260507141000 52 319 2.6 7.0 0.00 0.00 0.00 49 1017.0
20260507140500 51 358 2.6 7.0 0.00 0.00 0.00 53 1017.0
20260507140001 51 2 2.6 7.8 0.00 0.00 0.00 53 1017.0
20260507135502 51 2 2.6 11.3 0.00 0.00 0.00 56 1017.0
20260507135021 51 352 2.6 11.3 0.00 0.00 0.00 56 1016.9
20260507134500 51 308 1.7 4.3 0.00 0.00 0.00 57 1016.8
20260507134022 51 324 1.7 6.1 0.00 0.00 0.00 56 1016.9
20260507133501 50 344 1.7 7.8 0.00 0.00 0.00 56 1016.9
20260507133001 50 359 1.7 7.8 0.00 0.00 0.00 55 1016.9
20260507132500 50 354 1.7 8.7 0.00 0.00 0.00 57 1016.9
20260507132000 50 357 1.7 8.7 0.00 0.00 0.00 58 1016.9
20260507131522 50 5 1.7 6.1 0.00 0.00 0.00 59 1017.0
20260507131021 49 351 1.7 6.1 0.00 0.00 0.00 59 1017.0
20260507130521 49 324 1.7 5.2 0.00 0.00 0.00 60 1016.8
20260507130001 49 357 1.7 6.1 0.00 0.00 0.00 60 1016.9
20260507125501 48 2 1.7 6.1 0.00 0.00 0.00 63 1016.9
20260507125000 48 335 0.9 3.5 0.00 0.00 0.00 66 1016.8
20260507124501 48 292 0.9 2.6 0.00 0.00 0.00 67 1016.9
20260507124001 47 342 1.7 3.5 0.00 0.00 0.00 68 1016.9
20260507123521 47 344 0.9 3.5 0.00 0.00 0.00 68 1017.0
20260507123001 47 351 0.9 3.5 0.00 0.00 0.00 69 1017.0
20260507122522 46 356 0.9 3.5 0.00 0.00 0.00 71 1017.0
20260507122001 46 338 0.9 3.5 0.00 0.00 0.00 71 1017.0
20260507121521 46 315 0.9 2.6 0.00 0.00 0.00 73 1017.1
20260507121001 45 284 0.0 2.6 0.00 0.00 0.00 74 1017.0
20260507120501 45 237 0.9 2.6 0.00 0.00 0.00 76 1016.9
20260507120001 44 245 0.9 2.6 0.00 0.00 0.00 77 1017.0
20260507115500 44 274 0.9 1.7 0.00 0.00 0.00 78 1017.0
20260507115000 43 282 0.9 1.7 0.00 0.00 0.00 81 1017.0
20260507114501 42 278 0.0 1.7 0.00 0.00 0.00 81 1016.9
20260507114001 42 273 0.0 1.7 0.00 0.00 0.00 84 1016.9
20260507113501 41 287 0.0 1.7 0.00 0.00 0.00 85 1016.8
20260507113001 41 3 0.0 1.7 0.00 0.00 0.00 86 1016.9
20260507112501 40 27 0.0 0.9 0.00 0.00 0.00 87 1017.0
20260507112022 40 7 0.0 0.9 0.00 0.00 0.00 88 1016.8
20260507111522 40 5 0.0 0.9 0.00 0.00 0.00 88 1016.8
20260507111001 40 5 0.0 0.9 0.00 0.00 0.00 89 1016.8
20260507110522 40 5 0.0 0.9 0.00 0.00 0.00 89 1016.6
20260507110000 40 5 0.0 0.9 0.00 0.00 0.00 89 1016.5
20260507105501 40 5 0.0 0.9 0.00 0.00 0.00 89 1016.5
20260507105001 39 5 0.0 0.9 0.00 0.00 0.00 89 1016.4
20260507104501 39 5 0.0 0.9 0.00 0.00 0.00 89 1016.4
20260507104022 39 5 0.0 0.9 0.00 0.00 0.00 89 1016.4
20260507103501 40 5 0.0 0.9 0.00 0.00 0.00 89 1016.4
20260507103000 40 5 0.0 0.9 0.00 0.00 0.00 89 1016.3
20260507102501 40 5 0.0 0.9 0.00 0.00 0.00 89 1016.3
20260507102001 40 5 0.0 0.9 0.00 0.00 0.00 89 1016.3
20260507101500 40 5 0.0 0.9 0.00 0.00 0.00 89 1016.4
20260507101001 40 5 0.0 0.9 0.00 0.00 0.00 89 1016.3
20260507100501 40 5 0.0 0.9 0.00 0.00 0.00 89 1016.3
20260507100001 40 5 0.0 0.9 0.00 0.00 0.00 89 1016.3
20260507095500 40 5 0.0 0.9 0.00 0.00 0.00 90 1016.3
20260507095001 40 0 0.0 0.0 0.00 0.00 0.00 90 1016.3
20260507094501 40 0 0.0 0.0 0.00 0.00 0.00 89 1016.4
20260507094001 40 0 0.0 0.0 0.00 0.00 0.00 89 1016.4
20260507093501 40 5 0.0 0.9 0.00 0.00 0.00 89 1016.4
20260507093001 41 5 0.0 0.9 0.00 0.00 0.00 89 1016.4
20260507092502 41 5 0.0 0.9 0.00 0.00 0.00 89 1016.3
20260507092000 41 5 0.0 0.9 0.00 0.00 0.00 89 1016.2
20260507091501 41 5 0.0 0.9 0.00 0.00 0.00 89 1016.1
20260507091022 41 5 0.0 0.9 0.00 0.00 0.00 89 1016.1
20260507090501 41 5 0.0 0.9 0.00 0.00 0.00 89 1016.1
20260507090001 41 5 0.0 0.9 0.00 0.00 0.00 89 1016.0
20260507085501 41 5 0.0 0.9 0.00 0.00 0.00 89 1016.0
20260507085001 41 5 0.0 0.9 0.00 0.00 0.00 90 1016.0
20260507084501 41 5 0.0 0.9 0.00 0.00 0.00 90 1015.9
20260507084001 41 5 0.0 0.9 0.00 0.00 0.00 90 1015.9
20260507083501 41 5 0.0 0.9 0.00 0.00 0.00 90 1015.9
20260507083001 41 5 0.0 0.9 0.00 0.00 0.00 90 1015.8
20260507082522 42 5 0.0 0.9 0.00 0.00 0.00 90 1015.8
20260507082021 42 5 0.0 0.9 0.00 0.00 0.00 90 1015.8
20260507081500 42 5 0.0 0.9 0.00 0.00 0.00 90 1015.8
20260507081001 42 5 0.0 0.9 0.00 0.00 0.00 90 1015.8
20260507080501 42 5 0.0 0.9 0.00 0.00 0.00 89 1015.8
20260507080022 42 5 0.0 0.9 0.00 0.00 0.00 89 1015.7
20260507075501 42 5 0.0 0.9 0.00 0.01 0.00 89 1015.8
20260507075001 42 5 0.0 0.9 0.00 0.01 0.00 90 1015.7
20260507074501 42 5 0.0 0.9 0.00 0.01 0.00 90 1015.7
20260507074000 42 5 0.0 0.9 0.00 0.01 0.00 90 1015.7
20260507073501 42 5 0.0 0.9 0.00 0.01 0.00 90 1015.7
20260507073001 42 5 0.0 0.9 0.00 0.02 0.00 90 1015.7
20260507072501 42 5 0.0 0.9 0.00 0.03 0.00 90 1015.8
20260507072001 43 5 0.0 0.9 0.00 0.04 0.00 90 1015.7
20260507071501 43 5 0.0 0.9 0.00 0.05 0.00 89 1015.6
20260507071001 43 5 0.0 0.9 0.00 0.05 0.00 89 1015.6
20260507070501 43 5 0.0 0.9 0.00 0.05 0.00 89 1015.6
20260507070001 43 5 0.0 0.9 0.00 0.06 0.00 89 1015.8
20260507065522 43 5 0.0 0.9 0.00 0.07 0.00 89 1015.7
20260507065001 43 5 0.0 0.9 0.00 0.08 0.00 89 1015.7
20260507064501 43 5 0.0 0.9 0.00 0.09 0.00 89 1015.7
20260507064022 43 5 0.0 0.9 0.00 0.10 0.00 89 1015.8
20260507063501 43 5 0.0 0.9 0.00 0.10 0.00 89 1015.8
20260507063022 43 5 0.0 0.9 0.00 0.11 0.00 89 1015.9
20260507062501 43 0 0.0 0.0 0.00 0.11 0.00 89 1015.9
20260507062001 43 0 0.0 0.0 0.00 0.11 0.00 89 1015.9
20260507061502 43 0 0.0 0.0 0.00 0.11 0.00 89 1015.9
20260507061001 43 0 0.0 0.0 0.00 0.12 0.00 89 1015.8
20260507060501 43 0 0.0 0.0 0.00 0.12 0.00 89 1015.8
20260507060001 44 0 0.0 0.0 0.00 0.13 0.00 89 1015.8
20260507055501 44 0 0.0 0.0 0.00 0.14 0.00 89 1015.9
20260507055022 44 0 0.0 0.0 0.00 0.15 0.00 89 1015.9
20260507054523 44 0 0.0 0.0 0.00 0.16 0.00 89 1015.9
20260507054001 44 0 0.0 0.0 0.00 0.17 0.00 89 1015.9
20260507053522 44 0 0.0 0.0 0.00 0.19 0.00 89 1016.0
20260507053001 44 0 0.0 0.0 0.00 0.20 0.00 89 1016.0
20260507052501 44 0 0.0 0.0 0.00 0.22 0.00 89 1016.0
20260507052001 44 0 0.0 0.0 0.00 0.24 0.00 89 1015.9
20260507051522 44 0 0.0 0.0 0.00 0.25 0.00 89 1015.8
20260507051001 44 0 0.0 0.0 0.00 0.25 0.00 89 1015.8
20260507050501 44 0 0.0 0.0 0.00 0.26 0.00 88 1015.8
20260507050001 44 0 0.0 0.0 0.00 0.29 0.00 88 1016.0
20260507045501 44 0 0.0 0.0 0.00 0.31 0.00 88 1016.0
20260507045001 44 0 0.0 0.0 0.00 0.32 0.00 89 1016.0
20260507044501 44 0 0.0 0.0 0.00 0.33 0.00 89 1016.0
20260507044001 44 0 0.0 0.0 0.00 0.34 0.00 88 1016.1
20260507043522 44 0 0.0 0.0 0.00 0.35 0.00 88 1016.1
20260507043001 44 0 0.0 0.0 0.00 0.35 0.00 88 1016.0
20260507042501 45 0 0.0 0.0 0.00 0.36 0.00 88 1015.9
20260507042001 45 0 0.0 0.0 0.00 0.37 0.00 88 1015.9
20260507041522 45 0 0.0 0.0 0.00 0.38 0.00 88 1016.0
20260507041001 45 0 0.0 0.0 0.00 0.40 0.00 88 1016.0
20260507040501 45 0 0.0 0.0 0.00 0.43 0.00 87 1015.9
20260507040001 45 0 0.0 0.0 0.00 0.45 0.00 87 1015.8
20260507035501 45 0 0.0 0.0 0.00 0.45 0.45 87 1015.9
20260507035022 45 0 0.0 0.0 0.00 0.45 0.45 86 1015.8
20260507034501 45 0 0.0 0.0 0.00 0.45 0.45 86 1015.8
20260507034022 45 0 0.0 0.0 0.00 0.47 0.45 86 1015.9
20260507033501 46 0 0.0 0.0 0.00 0.48 0.45 86 1015.9
20260507033001 46 0 0.0 0.0 0.00 0.49 0.45 86 1015.9
20260507032501 46 0 0.0 0.0 0.00 0.49 0.45 86 1015.8
20260507032001 46 0 0.0 0.0 0.00 0.49 0.45 86 1015.8
20260507031501 46 0 0.0 0.0 0.00 0.49 0.45 85 1015.9
20260507031001 46 0 0.0 0.0 0.00 0.49 0.45 85 1016.0
20260507030501 46 0 0.0 0.0 0.00 0.49 0.45 85 1015.9
20260507030001 46 0 0.0 0.0 0.00 0.49 0.45 85 1016.0
20260507025501 46 0 0.0 0.0 0.00 0.49 0.45 85 1016.0
20260507025001 46 0 0.0 0.0 0.00 0.49 0.45 85 1015.9
20260507024501 47 0 0.0 0.0 0.00 0.49 0.45 84 1016.0
20260507024001 47 0 0.0 0.0 0.00 0.49 0.45 84 1015.9
20260507023501 47 0 0.0 0.0 0.00 0.50 0.45 84 1015.8
20260507023002 47 0 0.0 0.0 0.00 0.51 0.45 83 1015.8
20260507022501 47 0 0.0 0.0 0.00 0.51 0.45 82 1015.8
20260507022001 48 0 0.0 0.0 0.00 0.51 0.45 81 1015.7
20260507021501 48 0 0.0 0.0 0.00 0.51 0.45 81 1015.8
20260507021001 48 0 0.0 0.0 0.00 0.51 0.45 80 1015.7
20260507020501 48 0 0.0 0.0 0.00 0.51 0.45 80 1015.7
20260507020001 48 0 0.0 0.0 0.00 0.51 0.45 80 1015.6
20260507015501 49 0 0.0 0.0 0.00 0.52 0.45 79 1015.5
20260507015001 49 0 0.0 0.0 0.00 0.53 0.45 79 1015.5
20260507014501 49 0 0.0 0.0 0.00 0.55 0.45 77 1015.5
20260507014023 49 0 0.0 0.0 0.00 0.55 0.45 76 1015.5
20260507013501 50 0 0.0 0.0 0.00 0.56 0.45 78 1015.3
20260507013001 50 0 0.0 0.0 0.00 0.56 0.45 76 1015.3
20260507012501 50 0 0.0 0.0 0.00 0.57 0.45 76 1015.2
20260507012001 50 0 0.0 0.0 0.00 0.57 0.45 77 1015.2
20260507011523 51 0 0.0 0.0 0.00 0.57 0.45 77 1015.0
20260507011001 51 0 0.0 0.0 0.00 0.57 0.45 75 1015.0
20260507010501 52 0 0.0 0.0 0.00 0.58 0.45 72 1015.0
20260507010002 52 0 0.0 0.0 0.00 0.59 0.45 72 1015.1
20260507005502 52 0 0.0 0.0 0.00 0.61 0.45 71 1015.2
20260507005022 53 0 0.0 0.0 0.00 0.62 0.45 72 1015.0
20260507004501 53 0 0.0 0.0 0.00 0.64 0.45 70 1015.1
20260507004022 54 0 0.0 0.0 0.00 0.66 0.45 69 1015.1
20260507003502 54 5 0.0 0.9 0.00 0.67 0.45 66 1015.1
20260507003023 54 5 0.0 0.9 0.00 0.67 0.45 65 1015.0
20260507002502 55 5 0.0 0.9 0.00 0.67 0.45 66 1014.9
20260507002001 55 5 0.0 0.9 0.00 0.67 0.45 65 1014.8
20260507001501 56 2 0.0 2.6 0.00 0.67 0.45 60 1014.8
20260507001022 56 354 0.9 2.6 0.00 0.67 0.45 61 1014.8
20260507000501 56 1 0.9 2.6 0.00 0.67 0.45 58 1014.6
20260507000002 56 6 0.9 3.5 0.00 0.68 0.45 59 1014.7
20260506235501 57 346 0.9 3.5 0.00 0.68 0.45 58 1014.6
20260506235001 57 295 0.9 3.5 0.00 0.69 0.45 58 1014.5
20260506234501 57 307 1.7 4.3 0.00 0.69 0.45 58 1014.4
20260506234001 57 338 1.7 7.8 0.00 0.69 0.45 58 1014.4
20260506233501 58 321 1.7 7.8 0.00 0.69 0.45 56 1014.5
20260506233001 58 288 1.7 5.2 0.00 0.69 0.45 55 1014.5
20260506232501 58 287 0.9 5.2 0.00 0.69 0.45 55 1014.4
20260506232022 58 301 1.7 5.2 0.00 0.69 0.45 54 1014.4
20260506231501 58 352 2.6 7.0 0.00 0.70 0.45 54 1014.2
20260506231002 59 4 2.6 7.0 0.00 0.70 0.45 53 1014.1
20260506230523 59 354 1.7 5.2 0.00 0.71 0.45 53 1014.1
20260506230022 60 326 2.6 6.1 0.00 0.71 0.45 52 1014.2
20260506225501 59 346 2.6 7.8 0.00 0.71 0.45 53 1014.2
20260506225001 59 4 2.6 7.8 0.00 0.71 0.45 54 1014.3
20260506224501 59 10 2.6 7.8 0.00 0.71 0.45 55 1014.4
20260506224002 59 350 1.7 4.3 0.00 0.71 0.45 55 1014.3
20260506223502 58 278 1.7 4.3 0.00 0.71 0.45 55 1014.2
20260506223002 58 309 1.7 4.3 0.00 0.71 0.45 55 1014.4
20260506222501 58 345 1.7 4.3 0.00 0.71 0.45 55 1014.5
20260506222001 58 313 0.9 4.3 0.00 0.71 0.45 55 1014.5
20260506221501 58 291 0.9 3.5 0.00 0.71 0.45 55 1014.5
20260506221001 58 312 0.9 2.6 0.00 0.71 0.45 54 1014.6
20260506220501 58 295 0.9 2.6 0.00 0.71 0.45 54 1014.6
20260506220002 58 264 0.9 3.5 0.00 0.71 0.45 53 1014.7
20260506215501 58 299 0.9 3.5 0.00 0.71 0.45 53 1014.7
20260506215001 58 355 0.9 3.5 0.00 0.71 0.45 54 1014.7
20260506214523 58 6 1.7 4.3 0.00 0.71 0.45 54 1014.8
20260506214002 58 7 1.7 4.3 0.00 0.71 0.45 54 1014.7
20260506213501 58 4 1.7 4.3 0.00 0.71 0.45 53 1014.6
20260506213001 58 350 1.7 5.2 0.00 0.71 0.45 55 1014.5
20260506212502 58 354 2.6 7.0 0.00 0.71 0.45 54 1014.5
20260506212001 58 342 1.7 7.0 0.00 0.71 0.45 55 1014.4
20260506211501 58 277 0.9 4.3 0.00 0.71 0.45 54 1014.5
20260506211001 59 292 0.9 3.5 0.00 0.71 0.45 52 1014.4
20260506210502 59 346 1.7 4.3 0.00 0.72 0.45 52 1014.2
20260506210001 59 348 1.7 4.3 0.00 0.72 0.45 52 1014.1
20260506205501 59 344 1.7 5.2 0.00 0.73 0.45 51 1014.1
20260506205002 59 350 1.7 5.2 0.00 0.73 0.45 52 1014.1
20260506204502 59 354 1.7 7.0 0.00 0.73 0.45 50 1014.1
20260506204001 59 350 1.7 7.0 0.00 0.73 0.45 51 1014.2
20260506203501 59 320 1.7 7.0 0.00 0.73 0.45 54 1014.3
20260506203001 58 259 1.7 5.2 0.00 0.74 0.45 52 1014.2
20260506202502 58 269 1.7 7.0 0.00 0.74 0.45 53 1014.3
20260506202002 58 288 1.7 7.0 0.00 0.75 0.45 52 1014.3
20260506201501 58 297 1.7 5.2 0.00 0.75 0.45 53 1014.5
20260506201002 59 325 1.7 6.1 0.00 0.76 0.45 54 1014.3
20260506200502 58 309 1.7 6.1 0.00 0.76 0.45 54 1014.2
20260506200023 58 287 1.7 6.1 0.00 0.77 0.45 52 1014.4
20260506195501 59 331 1.7 4.3 0.00 0.77 0.45 52 1014.4
20260506195022 59 5 1.7 7.0 0.00 0.77 0.45 55 1014.2
20260506194502 59 357 2.6 7.0 0.00 0.78 0.45 50 1014.3
20260506194001 59 350 1.7 5.2 0.00 0.79 0.45 51 1014.3
20260506193522 59 348 1.7 5.2 0.00 0.79 0.45 54 1014.1
20260506193001 59 356 2.6 7.8 0.00 0.81 0.45 53 1014.1
20260506192501 59 356 2.6 7.8 0.00 0.82 0.45 48 1014.0
20260506192001 60 357 2.6 7.0 0.00 0.83 0.45 50 1013.8
20260506191501 60 8 2.6 10.4 0.00 0.85 0.45 52 1013.8
20260506191002 60 13 3.5 10.4 0.00 0.87 0.45 51 1013.7
20260506190501 60 15 2.6 10.4 0.00 0.90 0.45 53 1013.8
20260506190001 61 6 1.7 5.2 0.00 0.91 0.45 50 1013.9
20260506185502 61 360 2.6 7.8 0.00 0.91 0.45 50 1013.8
20260506185001 60 356 2.6 7.8 0.00 0.91 0.45 50 1013.7
20260506184501 61 359 3.5 10.4 0.00 0.91 0.45 50 1013.9
20260506184023 61 3 2.6 10.4 0.00 0.91 0.45 49 1013.7
20260506183501 62 356 2.6 8.7 0.00 0.91 0.45 48 1013.8
20260506183001 61 351 2.6 8.7 0.00 0.91 0.45 49 1013.6
20260506182502 61 3 2.6 9.6 0.00 0.91 0.45 50 1013.7
20260506182002 61 351 1.7 9.6 0.00 0.91 0.45 51 1013.7
20260506181501 61 309 1.7 3.5 0.00 0.91 0.45 49 1013.6
20260506181001 61 344 2.6 5.2 0.00 0.91 0.45 53 1013.7